GFSNW_con_3kmhel_021.txt.gz
Helicity
79 103 118 110 108 112 150 142 118 170 126 83 39 51 116 111 93 91 63 32 48 36 57 76 56 39 47 83 69 60 62 43 88 53 66 44 20 19 27 43 31 57 90 77
81 107 119 121 109 119 166 156 149 179 119 45 56 94 95 79 64 57 67 59 47 79 91 61 67 72 64 74 57 56 74 72 97 90 80 64 45 48 61 67 56 54 95 57
85 110 133 127 114 145 170 163 153 201 147 81 40 80 74 69 79 46 77 82 94 106 100 97 47 72 53 66 68 73 83 66 36 11 23 54 59 78 87 101 91 102 126 129
98 127 138 127 119 140 180 183 151 143 119 114 100 102 87 69 56 59 85 99 62 54 65 74 58 53 61 84 86 84 82 50 81 88 90 78 71 77 90 95 115 134 81 126
117 133 132 127 126 139 179 160 150 188 106 139 126 109 89 51 60 59 63 53 70 57 24 17 19 50 57 57 98 103 116 62 104 88 107 100 70 71 63 72 100 93 99 122
131 123 133 129 106 154 163 182 179 152 174 170 152 123 86 32 77 105 70 53 77 87 56 56 71 76 76 53 56 83 93 94 110 78 109 107 70 93 143 135 125 155 180 132
125 135 142 142 90 122 116 135 135 169 176 157 143 146 118 74 78 80 78 94 101 59 72 119 185 245 195 173 156 90 97 137 150 106 145 144 98 137 110 139 131 148 160 166
128 139 162 167 84 67 61 126 105 145 219 164 144 167 160 212 207 153 115 86 70 102 151 113 108 119 108 121 144 143 110 133 162 164 153 151 134 150 197 193 115 147 155 194
136 149 179 195 110 112 71 122 105 110 184 203 169 172 131 156 186 184 136 158 255 162 138 125 96 72 61 73 82 128 175 186 177 175 176 130 102 143 178 220 155 127 182 193
142 158 204 222 204 118 112 122 86 109 150 157 140 146 118 140 183 168 164 160 145 152 144 149 126 111 96 97 88 74 134 162 145 187 168 151 95 186 247 261 96 132 94 160
138 170 225 268 223 140 72 97 103 75 110 166 150 135 134 131 137 144 110 181 136 156 157 137 108 125 97 145 133 102 110 125 140 213 218 166 173 323 204 108 163 109 135 180
126 174 211 256 242 168 103 131 141 119 109 119 143 144 137 110 73 123 136 94 83 98 159 142 137 155 149 167 158 178 171 152 128 138 118 118 67 108 108 164 185 178 210 239
147 163 196 211 213 165 96 121 136 124 128 154 149 178 182 163 125 94 131 137 106 111 106 112 133 163 166 168 134 172 126 156 171 194 117 109 104 74 160 170 199 241 287 335
153 176 190 204 192 151 115 126 142 106 108 114 123 155 160 187 160 113 115 113 179 162 152 152 145 158 114 144 151 157 109 140 122 158 119 145 136 145 177 235 265 317 354 343
141 162 187 193 165 149 128 127 153 106 89 69 120 143 168 185 152 145 150 177 168 165 175 167 129 135 171 188 207 179 179 196 218 180 127 151 130 137 184 275 326 342 332 362
140 154 171 170 128 116 124 127 119 152 106 95 100 89 143 184 168 195 200 169 159 165 141 126 125 160 181 156 157 106 148 144 156 150 104 151 158 152 235 263 280 303 337 351
145 164 178 148 116 103 109 78 92 158 109 101 113 111 138 139 158 160 165 177 164 165 160 156 162 179 204 203 192 200 164 143 127 164 217 193 179 159 212 281 365 447 504 527
154 181 176 167 142 103 143 164 167 153 130 141 130 125 132 158 159 162 166 164 172 187 184 185 182 220 226 185 180 142 111 105 110 124 178 161 196 258 371 435 531 603 572 291
174 198 163 169 163 149 140 209 165 161 144 138 158 144 102 139 159 156 145 155 162 174 197 195 194 222 246 181 155 146 132 119 112 165 206 246 341 443 486 617 760 496 155 132
194 192 194 183 167 164 177 160 162 192 211 222 185 183 169 134 128 144 142 152 153 166 153 180 211 253 212 148 141 127 124 134 174 227 256 390 470 582 677 495 163 134 162 72
197 202 190 146 188 158 181 181 193 198 209 213 218 195 180 182 161 148 146 153 157 136 132 182 204 208 207 211 204 208 212 261 298 341 468 495 459 424 324 164 162 125 112 72
133 115 148 162 175 167 163 202 207 204 153 180 144 138 162 166 152 150 143 157 170 134 184 234 225 233 230 269 304 312 329 378 419 443 486 460 358 187 164 117 132 109 71 73
162 152 148 133 147 137 129 166 206 192 215 231 174 139 132 128 142 173 173 164 195 232 235 253 278 270 248 226 200 231 183 163 162 154 102 97 124 129 102 43 35 47 85 97
221 218 216 205 168 190 265 258 201 148 130 120 115 112 112 115 116 124 148 182 215 240 300 328 321 280 239 301 274 211 151 92 62 4 17 21 12 22 34 53 74 84 72 70
119 125 162 174 149 156 127 130 143 151 136 121 118 123 99 146 139 155 183 214 292 350 391 358 302 282 232 207 193 210 171 97 47 23 41 39 43 46 41 45 62 72 73 74
98 114 124 103 136 143 126 119 123 83 79 84 89 117 133 159 187 204 244 266 313 255 244 208 164 130 76 70 36 15 19 -6 -2 38 57 60 60 60 74 83 79 76 65 64
119 128 139 121 134 116 105 103 107 100 135 172 162 150 125 145 138 160 195 207 226 177 135 84 68 62 28 3 -8 6 28 51 66 70 76 74 70 69 77 87 82 79 82 86

GFSNW_con_3kmhel_024.txt.gz
Helicity
86 103 95 93 96 109 149 146 123 190 145 102 55 35 84 105 95 64 77 55 32 39 88 89 69 38 51 77 82 74 86 45 74 54 55 39 31 31 41 51 38 65 70 38
93 104 106 92 97 93 151 158 153 201 128 49 76 76 108 102 106 69 71 64 21 64 88 62 59 54 65 69 67 47 48 61 92 93 72 65 41 67 80 93 82 67 91 28
96 108 110 98 96 61 132 163 142 206 136 88 25 81 86 84 93 70 69 70 80 93 108 106 44 65 64 59 60 81 82 67 46 12 31 62 71 76 96 105 92 87 102 85
104 109 105 111 84 94 145 170 124 136 110 123 63 99 60 69 64 70 84 102 96 63 64 74 57 52 63 75 70 80 80 58 72 76 83 76 63 64 91 101 123 129 84 104
110 100 112 114 81 134 148 117 107 168 121 172 128 120 68 55 76 69 68 69 78 74 16 -4 -12 41 38 44 90 90 104 60 78 71 106 113 65 52 88 110 144 120 117 60
88 106 109 105 111 155 152 170 148 115 211 190 166 131 115 80 94 97 73 67 62 64 40 46 64 64 91 62 64 97 98 90 92 59 112 116 47 85 161 169 189 188 167 121
98 94 100 99 115 145 141 138 120 137 148 156 136 136 154 105 57 58 89 96 68 40 58 95 151 194 163 155 152 97 88 125 136 93 140 135 110 121 116 155 136 168 187 148
90 95 94 96 93 144 139 130 110 111 131 165 168 147 174 191 188 142 123 114 63 43 110 101 103 111 96 111 123 136 108 118 148 149 138 145 129 123 142 193 117 192 195 174
93 91 101 103 76 107 92 120 102 91 111 148 154 190 185 160 174 168 136 117 147 104 92 108 93 76 68 87 84 106 140 157 154 166 176 148 82 111 138 201 190 173 200 174
109 133 138 100 72 64 49 91 94 89 146 232 143 156 169 152 193 176 131 152 114 114 123 131 111 96 85 85 83 75 127 142 146 204 188 162 91 152 217 239 94 79 93 111
145 187 177 117 67 61 71 104 103 98 127 210 183 175 156 140 154 152 114 222 131 138 147 132 103 118 88 127 118 99 107 116 116 175 210 156 134 234 166 83 85 67 47 107
162 167 173 142 132 167 162 178 104 107 146 145 176 178 152 112 78 118 131 95 93 98 166 141 139 164 166 176 158 169 157 137 143 148 139 113 -2 62 80 135 139 117 132 156
162 162 197 175 145 83 51 80 109 119 145 189 172 178 192 175 125 84 128 133 101 122 123 119 145 168 172 177 138 182 122 149 179 180 100 94 86 59 85 129 139 159 173 234
161 165 189 195 170 128 149 137 154 113 120 118 142 164 160 203 147 109 115 108 186 165 158 159 145 155 110 148 155 154 117 138 144 147 88 105 88 118 97 157 194 198 210 259
185 176 159 182 219 201 188 174 202 142 96 81 131 130 171 212 152 165 173 176 151 151 165 152 120 140 176 200 211 165 197 198 192 155 131 155 109 99 96 121 137 177 275 355
160 171 154 156 158 152 160 153 157 196 127 97 115 118 150 190 195 233 220 179 160 160 136 124 133 164 176 170 159 89 145 141 139 139 113 88 106 107 107 153 193 240 298 343
179 155 142 147 136 144 144 104 134 194 123 103 116 110 119 132 140 143 153 161 142 139 138 155 159 172 187 195 187 141 78 80 89 100 136 121 124 111 130 196 291 379 433 498
160 150 141 130 102 84 155 199 193 168 97 108 97 101 99 131 123 127 140 142 151 175 166 164 169 186 189 149 103 104 97 83 81 78 87 115 119 179 258 296 378 518 644 710
181 148 146 142 143 126 115 181 168 140 115 113 120 102 66 100 118 128 131 146 150 152 176 171 167 188 171 198 150 124 126 105 84 109 128 179 256 325 403 510 612 723 672 510
171 174 149 137 142 154 145 132 126 157 171 176 151 132 139 125 129 144 143 149 148 149 141 147 177 198 240 211 118 80 65 80 113 135 186 285 346 392 487 470 531 501 370 148
183 164 150 132 182 150 151 155 166 171 169 160 183 174 176 173 158 145 145 150 141 126 138 167 202 228 215 206 180 168 165 200 248 292 395 382 384 397 380 363 283 201 157 205
150 111 147 170 176 173 166 209 187 180 128 177 141 158 172 168 138 144 135 152 166 167 174 208 207 217 199 192 203 178 164 215 250 292 327 317 313 265 146 123 54 62 49 15
177 194 191 168 180 208 194 221 215 170 178 172 135 133 126 146 158 170 151 150 177 179 205 232 274 220 204 204 216 244 203 185 177 168 91 23 -7 15 29 27 12 -4 11 39
168 180 191 177 169 188 210 213 166 150 145 130 128 133 125 121 139 136 170 185 193 228 255 284 262 207 218 237 223 206 166 70 51 50 70 78 58 27 18 31 37 47 57 69
153 169 163 184 175 187 177 178 173 148 117 118 121 125 115 126 142 156 179 192 242 243 219 204 168 160 194 207 194 141 102 44 44 36 31 15 19 49 52 49 43 41 40 43
128 151 189 146 183 169 142 140 128 100 107 114 109 120 135 133 160 202 194 214 169 128 129 165 163 171 144 82 22 25 37 20 13 30 49 51 46 44 48 59 60 61 49 48
109 113 118 104 118 117 109 94 89 79 108 136 130 152 142 153 194 236 239 229 179 175 168 142 108 76 26 16 2 8 24 39 38 41 58 72 81 81 89 99 89 80 78 69

GFSNW_con_3kmhel_030.txt.gz
Helicity
39 83 145 155 127 102 133 190 219 70 95 95 34 -34 64 60 33 36 51 57 41 16 37 38 30 31 97 90 91 60 92 77 45 37 64 72 68 33 22 32 27 40 39 22
21 106 148 174 131 131 284 241 252 160 215 93 11 49 84 70 38 43 59 53 65 64 61 71 76 83 118 93 73 66 70 71 65 38 35 41 22 33 47 65 57 29 45 43
76 223 146 160 101 89 225 273 232 216 169 156 -10 43 75 66 63 70 74 74 74 67 79 81 69 88 94 95 80 93 75 74 40 16 46 42 44 43 46 37 67 59 50 30
22 179 167 146 107 89 273 301 227 214 113 61 23 66 72 68 74 95 69 58 27 36 47 61 62 59 66 65 69 75 78 42 47 43 43 40 50 37 32 45 39 72 38 42
136 170 122 132 95 118 275 256 269 252 90 78 61 101 98 55 85 84 58 30 48 44 38 23 38 50 48 54 66 69 77 38 44 22 45 61 47 36 28 34 35 51 36 33
273 217 127 119 102 164 261 304 162 165 150 91 91 113 80 70 65 118 116 56 68 68 85 97 105 111 113 77 52 70 66 49 42 35 74 67 28 14 63 88 106 97 91 60
232 169 122 99 84 143 263 266 210 193 123 113 94 86 75 57 70 63 95 73 69 91 95 126 156 152 137 120 110 100 60 87 96 58 53 59 90 86 89 50 34 51 49 77
234 140 120 96 78 81 306 211 215 162 119 84 107 87 87 92 115 129 89 97 87 79 113 95 83 89 73 86 111 108 95 90 86 77 67 79 43 87 83 75 83 96 63 66
175 134 104 102 74 70 249 221 216 183 96 82 78 105 96 114 116 135 122 153 165 115 95 80 42 24 42 42 56 99 114 114 107 104 69 46 107 107 84 65 70 160 124 92
134 108 103 96 61 61 233 199 196 153 103 87 86 107 125 146 170 169 169 157 119 133 95 77 55 47 71 39 43 46 85 106 95 115 90 81 92 91 100 94 176 92 48 64
90 88 93 78 36 56 220 183 205 143 125 106 159 131 136 169 164 165 141 178 132 117 84 75 63 56 59 59 80 58 67 87 91 119 119 82 87 64 89 138 95 99 95 98
82 85 74 61 40 78 189 182 177 160 101 113 113 137 149 164 192 172 107 145 107 97 127 118 95 94 92 90 66 75 83 92 113 83 115 112 39 77 104 112 106 95 102 126
79 74 70 61 59 131 179 145 112 129 115 127 136 151 169 177 177 173 131 135 103 126 150 105 112 109 91 104 85 101 69 82 109 99 70 48 43 62 69 70 66 76 81 92
69 60 70 75 60 138 131 97 101 119 121 111 155 162 147 212 179 139 139 111 167 158 151 133 120 130 87 109 115 99 110 67 75 74 51 82 73 81 77 87 90 94 96 114
65 61 64 93 169 154 113 93 78 53 96 109 170 145 181 191 132 124 108 122 158 155 147 137 135 130 127 144 127 108 86 132 120 117 132 91 87 97 90 86 105 116 121 147
89 89 121 184 131 94 129 166 -9 51 76 106 166 151 193 223 202 215 224 194 177 168 158 146 144 136 134 141 125 163 163 155 143 110 80 73 89 135 144 151 150 159 193 233
172 162 213 211 182 229 162 99 82 79 82 66 144 146 166 201 185 182 198 199 172 167 154 168 156 149 143 148 155 178 152 146 145 159 124 117 188 159 167 178 215 280 333 380
170 170 164 140 133 142 103 93 133 118 79 102 97 116 131 176 149 150 169 156 157 184 155 147 163 174 185 177 207 189 172 162 165 161 141 157 179 208 228 218 209 284 353 416
114 101 111 200 194 103 123 207 226 158 104 101 109 97 93 128 124 129 124 137 141 133 166 172 150 185 201 214 192 194 201 162 112 143 170 186 204 206 215 266 340 342 289 264
160 198 193 179 162 221 201 142 129 134 144 137 103 122 111 111 109 122 115 125 132 128 154 155 216 254 257 209 160 119 105 101 59 128 148 171 192 151 132 123 121 126 106 85
191 219 166 156 201 140 127 128 139 146 129 125 118 117 100 113 106 122 137 125 130 121 155 156 187 214 204 190 135 86 93 124 146 143 71 47 39 35 62 71 65 55 34 17
78 76 117 145 161 146 157 170 139 126 109 121 119 139 142 140 129 135 143 167 162 161 169 193 191 219 228 192 144 132 122 91 75 66 72 84 92 87 81 62 44 46 42 42
186 175 160 164 199 157 134 104 123 130 113 121 146 178 170 165 167 172 156 144 196 188 181 218 250 235 202 132 98 99 96 109 109 112 104 92 91 88 84 78 69 57 75 72
169 186 184 145 106 127 125 133 112 117 127 141 169 191 167 169 178 174 166 174 168 168 191 187 160 148 141 128 116 121 142 143 147 137 115 103 93 93 80 78 80 86 92 85
96 100 131 133 101 120 118 128 131 134 134 154 168 163 144 150 143 156 168 158 182 168 160 137 116 117 131 144 139 153 154 125 113 108 111 106 92 92 107 103 100 97 89 88
138 145 132 122 151 168 160 165 168 182 176 168 172 149 145 167 166 169 183 189 183 151 152 129 93 94 121 132 141 137 126 121 124 124 122 114 117 112 103 100 102 85 84 78
152 154 177 161 176 158 155 153 163 173 190 188 156 156 157 129 142 167 158 190 153 104 86 62 60 79 96 113 114 117 132 145 136 125 129 127 115 106 111 113 98 80 70 64

GFSNW_con_3kmhel_033.txt.gz
Helicity
98 81 163 49 75 158 157 193 257 109 89 266 159 -0 -28 -37 7 41 64 88 19 28 24 6 6 11 14 64 63 29 67 37 12 -28 92 52 82 35 23 30 22 34 62 45
60 66 96 11 101 157 249 232 275 140 99 233 82 43 -37 -13 -14 34 48 50 41 26 35 26 24 24 152 93 76 82 69 25 14 18 27 35 27 22 30 42 70 31 48 38
63 30 7 14 161 129 223 268 297 274 225 119 47 25 -29 -33 45 58 40 35 51 39 50 63 54 73 93 101 123 133 111 36 45 17 52 65 28 13 16 24 41 31 10 16
65 59 -86 110 223 103 205 247 266 279 270 130 64 19 11 -31 25 87 48 63 32 38 53 53 68 55 76 83 80 79 84 47 24 39 62 63 52 32 13 -25 -4 -13 15 20
44 44 50 96 271 92 215 326 173 169 145 132 105 19 -30 -36 37 55 52 45 16 13 21 27 23 45 40 46 40 48 61 56 72 49 25 29 23 18 17 -0 -15 -11 6 -12
-11 -0 111 121 158 155 224 149 91 156 146 131 140 71 -4 -24 69 115 62 13 45 26 96 121 102 132 114 93 46 38 53 72 49 43 66 49 7 -5 2 7 12 46 46 39
-8 19 108 302 109 156 292 214 220 196 178 163 95 49 15 20 76 76 118 77 58 94 91 122 133 132 118 107 117 69 53 43 72 44 30 24 48 75 82 73 41 33 56 51
-20 -69 386 185 100 62 194 144 219 144 254 114 80 63 67 73 112 76 107 161 115 39 78 94 71 65 64 54 78 74 63 70 65 59 38 49 26 84 68 79 89 191 165 152
-62 -97 214 151 85 20 127 240 157 114 241 147 91 85 75 120 139 121 133 111 132 85 85 84 27 19 21 25 36 82 91 96 78 83 60 32 106 104 77 67 68 216 166 145
35 163 257 180 88 27 79 206 120 81 146 78 111 122 138 90 86 102 118 92 91 96 97 82 47 24 64 18 21 32 77 97 75 69 76 66 142 91 74 89 221 169 107 82
219 330 198 140 117 6 180 328 210 154 174 208 152 103 100 140 90 94 80 119 110 108 98 75 54 51 36 44 42 35 44 60 70 97 88 64 116 115 146 182 111 134 94 100
269 253 180 134 38 57 258 310 202 204 174 164 178 246 216 203 158 101 68 83 68 80 95 113 92 81 71 77 36 62 65 75 93 78 105 138 82 114 121 115 105 111 109 89
224 162 139 84 8 77 227 204 165 168 181 154 126 122 135 163 265 268 148 156 118 100 143 104 107 83 70 77 62 85 83 99 112 115 118 112 110 106 118 136 134 102 97 101
132 126 94 32 32 59 256 235 179 136 131 149 128 92 146 175 144 149 188 137 170 132 130 149 126 111 77 90 106 88 144 92 95 93 72 130 109 213 169 108 89 119 128 129
116 101 92 60 51 94 154 116 178 191 172 120 121 92 169 165 135 120 95 71 114 137 164 155 146 134 126 133 134 118 106 150 120 127 182 145 133 232 129 137 162 168 168 207
77 77 79 74 105 147 91 79 94 145 130 100 182 139 167 167 161 168 154 151 163 158 183 174 166 140 128 131 131 194 165 160 152 162 160 148 148 188 180 227 245 240 263 285
78 84 96 117 141 172 141 78 82 78 70 111 173 174 141 171 142 203 181 182 180 190 177 188 167 158 158 172 153 174 166 160 174 168 146 192 249 228 242 218 197 227 236 252
127 146 168 226 137 61 116 149 104 33 72 102 128 152 177 228 196 191 222 198 193 220 181 182 182 184 212 203 218 230 216 242 227 202 236 267 246 222 215 204 181 191 156 117
241 246 233 202 159 125 150 227 32 50 93 120 126 147 158 165 169 184 186 186 182 151 190 191 161 186 202 227 224 249 249 235 203 219 189 187 202 190 162 127 105 112 106 100
227 215 230 182 203 233 232 238 97 94 81 106 99 129 124 154 164 178 171 165 130 147 157 150 205 226 229 250 258 245 212 159 133 175 175 160 150 125 100 116 114 101 104 105
253 196 181 218 198 118 118 79 76 66 113 103 124 153 134 162 149 161 168 141 139 138 136 150 159 182 190 223 228 188 152 164 142 160 120 115 119 113 97 110 121 113 110 121
136 178 165 76 126 107 155 144 107 116 111 116 151 169 158 154 144 141 143 147 137 140 130 167 186 208 227 222 193 155 174 187 167 135 132 121 125 128 133 122 130 135 118 103
208 236 233 192 144 125 111 122 141 105 113 144 137 171 160 154 163 164 145 128 154 143 182 204 242 208 240 227 206 180 169 151 128 129 143 144 147 147 141 149 145 97 120 117
270 287 232 183 139 128 113 144 132 118 111 133 165 194 156 161 164 145 146 178 186 179 178 184 179 169 205 198 129 131 146 147 144 148 142 136 138 148 146 138 125 124 125 106
155 164 177 150 114 115 157 112 94 148 145 153 171 187 171 175 165 175 192 174 187 173 208 162 167 169 170 146 118 145 146 132 118 135 148 142 120 126 148 142 133 119 106 100
139 160 160 150 180 160 123 144 156 182 173 166 157 169 192 205 184 176 177 189 194 197 206 147 139 159 140 132 169 155 153 145 148 148 145 149 164 146 137 127 127 98 103 91
92 118 151 132 136 133 139 146 141 155 168 203 166 167 163 132 139 195 232 251 193 153 128 122 119 152 174 193 173 159 152 154 157 153 154 148 141 133 136 139 126 98 89 79

GFSNW_con_3kmhel_039.txt.gz
Helicity
101 172 241 173 195 246 292 417 297 111 232 370 257 158 216 30 33 43 72 45 47 -8 -80 29 70 -25 42 56 90 111 62 87 76 -5 -13 47 58 28 46 84 49 63 23 27
13 106 220 160 154 232 435 453 364 160 225 236 177 256 152 18 21 131 178 61 25 31 -65 62 -4 80 165 159 156 106 117 103 97 71 38 41 30 41 28 46 114 75 82 21
89 102 150 116 92 172 372 572 442 308 190 183 179 211 108 21 -4 118 209 65 54 76 79 46 23 113 134 213 168 135 109 112 78 60 48 38 24 31 25 83 132 88 57 30
64 68 138 159 81 88 304 568 386 360 259 157 212 153 102 49 33 68 65 19 -1 16 -12 32 72 155 154 141 129 125 119 105 107 70 35 29 2 49 65 24 67 133 35 31
59 85 35 172 87 85 234 493 441 389 251 180 295 223 87 69 46 121 108 45 23 79 46 48 71 135 125 106 109 114 144 109 116 74 85 79 83 73 48 92 79 47 39 51
70 78 109 117 102 118 198 373 349 289 241 127 226 231 100 84 81 104 121 75 35 34 72 89 110 128 161 124 94 104 128 148 172 110 110 85 54 19 60 63 54 33 32 69
74 72 86 137 103 126 214 262 409 249 212 178 116 190 112 104 61 132 102 60 32 151 209 302 323 305 222 222 184 60 101 122 128 91 115 93 15 58 58 75 130 162 231 210
51 64 106 93 80 125 149 31 376 351 141 131 105 130 97 83 19 88 18 111 35 197 282 238 195 231 156 94 101 150 136 137 133 116 97 62 52 101 62 94 163 171 203 257
-9 36 70 73 87 119 141 -38 285 38 118 109 132 85 91 68 69 101 192 255 325 310 212 192 183 145 92 103 169 256 236 166 135 120 99 58 43 80 113 115 153 144 151 150
-37 6 49 65 109 93 118 -86 10 238 104 123 103 136 41 33 113 184 298 224 276 326 269 189 165 132 73 128 110 110 170 227 157 146 92 69 72 89 86 129 117 180 151 120
41 48 70 120 111 44 99 -92 93 152 233 117 66 98 32 72 205 270 202 410 243 265 302 222 164 102 97 122 85 63 93 118 110 140 113 58 99 136 115 125 219 192 172 164
43 80 111 100 103 76 3 -152 -37 114 145 112 239 56 211 153 188 371 413 252 184 179 252 212 157 114 133 117 77 60 75 66 56 63 48 59 130 201 260 232 241 232 230 214
53 92 88 75 117 42 -156 -189 -219 -7 116 218 241 118 295 443 221 293 303 409 153 238 185 190 123 94 102 117 99 109 134 90 102 103 93 155 396 421 378 329 310 301 259 224
68 61 40 54 57 -8 -203 18 21 94 51 177 307 271 361 496 234 183 159 127 102 192 220 183 120 101 76 85 76 116 114 137 116 124 230 398 435 420 422 462 360 317 315 279
27 24 46 62 140 49 -225 -91 -96 66 222 127 136 321 442 324 284 231 180 175 246 226 201 167 145 118 127 133 148 148 160 156 169 157 225 289 368 403 415 415 326 265 268 285
17 40 44 114 101 -126 -219 -71 -137 42 171 169 305 424 445 235 178 192 198 178 183 188 184 184 188 169 152 151 161 203 269 303 274 262 340 391 404 416 347 329 302 296 274 237
11 23 49 102 -4 19 93 -4 69 45 88 53 157 429 277 354 332 336 333 284 279 206 213 200 192 227 219 205 214 216 255 279 357 337 411 358 268 252 263 298 305 318 306 286
66 65 98 -16 -98 37 47 250 242 186 61 155 163 215 214 264 309 315 379 370 367 325 242 263 234 269 274 247 291 296 305 335 345 375 375 403 326 282 279 263 264 290 267 242
76 6 -43 -4 109 -6 6 45 165 160 80 121 152 200 233 226 271 330 287 257 247 222 227 243 223 263 251 243 283 312 294 296 338 332 360 339 298 290 292 294 287 295 233 226
60 191 194 121 85 117 170 163 193 159 125 146 146 167 160 239 265 281 269 241 181 192 220 224 246 265 297 404 361 355 364 355 322 381 306 293 302 274 265 320 287 260 228 209
365 186 138 161 270 329 215 161 148 157 142 144 161 145 164 246 219 255 236 214 237 216 213 214 215 226 216 259 307 300 293 281 259 250 244 232 290 357 364 281 232 205 209 216
144 110 160 144 181 120 76 103 99 88 107 110 219 173 171 189 220 183 231 205 194 161 156 225 190 187 183 206 218 259 292 249 270 260 277 308 307 269 231 202 200 228 209 174
172 176 126 140 82 134 124 114 110 87 97 128 88 116 121 130 165 159 149 170 187 125 173 173 151 140 147 161 243 292 317 369 357 397 403 361 342 274 223 225 191 202 214 181
119 153 172 112 73 86 82 112 116 73 126 185 117 106 95 106 140 108 150 167 162 171 168 135 129 129 189 297 303 335 362 408 330 307 304 278 247 241 263 259 198 180 176 159
122 129 79 99 57 81 55 103 155 147 130 144 138 125 84 138 132 161 145 152 145 129 125 136 123 152 230 296 362 385 411 330 279 234 196 186 208 233 227 191 179 168 148 130
112 115 77 116 113 113 153 130 120 124 125 118 106 94 133 165 156 171 179 162 150 137 135 126 156 214 289 326 344 327 284 222 164 148 148 159 168 171 164 149 139 115 99 99
183 221 198 163 191 178 139 143 136 142 131 158 187 196 177 158 186 199 201 188 156 149 149 123 168 257 263 201 146 161 191 180 173 180 205 207 167 153 140 161 124 93 104 95

GFSNW_con_3kmhel_042.txt.gz
Helicity
104 89 154 252 144 211 262 386 326 184 305 368 257 162 205 213 -37 -9 112 147 126 44 64 41 8 44 47 34 122 82 126 125 95 27 17 63 73 30 64 83 76 99 54 33
98 86 104 223 187 181 359 428 367 134 308 288 165 242 179 111 15 -48 3 138 147 91 58 63 45 61 116 71 126 138 138 143 136 123 87 -20 -11 28 77 108 90 71 101 28
149 95 74 102 123 83 342 539 484 384 308 272 176 203 191 105 -43 -2 90 111 126 155 38 55 75 53 80 135 143 128 167 137 110 100 60 65 67 42 60 100 121 103 85 51
146 85 57 35 92 50 242 519 448 584 360 158 192 140 186 70 -18 -21 36 57 133 152 62 94 121 120 119 180 224 209 180 132 118 99 93 100 112 97 53 62 63 131 61 98
111 110 41 11 63 62 219 501 520 422 354 250 264 217 130 79 -28 41 44 158 189 132 118 82 102 158 136 139 181 151 149 98 134 123 129 98 85 95 85 63 98 76 80 100
89 -53 21 39 87 198 263 343 372 396 332 180 240 194 202 98 21 5 52 114 140 160 148 94 56 87 108 113 139 170 177 178 192 138 178 140 72 84 93 65 23 46 106 92
-111 -42 24 59 50 244 393 194 399 422 230 267 68 189 239 74 46 70 42 51 129 71 56 164 287 383 286 250 208 170 170 205 181 137 183 164 86 96 103 176 203 202 260 271
-73 8 50 57 45 155 247 138 257 386 233 209 169 79 140 73 34 53 45 39 2 146 201 261 296 312 278 239 244 179 154 186 162 152 137 113 86 102 129 153 175 159 221 216
-12 3 -9 65 41 108 136 160 163 197 289 141 149 158 81 100 86 58 -10 -30 106 197 182 233 218 208 193 190 207 232 231 211 159 155 134 82 27 109 118 146 156 139 180 183
72 16 4 44 85 58 130 13 57 229 270 188 97 133 130 103 131 102 46 104 193 258 223 217 216 188 155 187 168 204 252 236 194 214 156 95 55 52 136 160 99 153 146 117
56 50 34 39 93 5 127 57 -38 83 345 172 183 130 124 107 121 142 128 230 296 310 275 218 237 193 195 225 172 176 219 242 208 245 204 74 84 163 143 136 203 186 168 123
40 40 37 70 86 3 89 -111 -77 4 78 108 277 151 261 80 153 138 216 188 233 198 252 260 243 227 256 219 156 179 165 128 124 97 73 118 119 117 170 190 232 193 176 156
-16 8 -15 84 55 76 103 -104 -101 -19 -10 -58 82 88 90 84 88 159 193 252 241 311 329 181 248 238 205 199 180 166 116 101 110 134 156 250 321 324 283 262 264 241 211 189
57 29 27 81 76 71 104 -85 -212 31 119 -28 19 84 120 167 142 289 193 218 294 361 254 133 201 244 169 133 135 173 142 153 165 196 225 343 354 322 349 375 343 342 316 277
57 94 90 90 70 65 88 84 16 79 214 -8 83 104 170 216 178 212 167 262 427 370 332 59 134 225 195 212 201 169 202 204 222 164 149 224 290 315 307 363 330 309 330 356
80 98 67 51 21 27 63 -117 -31 -47 -61 92 128 205 246 332 187 277 278 342 414 388 334 178 127 229 202 181 160 162 177 180 191 166 310 313 410 409 341 374 353 348 347 324
44 40 33 30 2 50 45 -76 -47 -40 112 74 51 301 420 318 299 119 289 356 410 338 272 233 224 211 205 184 164 181 240 252 290 349 431 386 325 317 364 381 351 369 374 348
17 29 22 11 -23 -8 13 124 112 69 83 70 79 130 232 219 307 204 310 374 338 300 184 185 207 223 242 188 216 301 333 335 302 309 277 320 382 395 384 371 381 448 428 391
31 48 24 60 107 -88 -167 -119 -31 30 72 198 108 237 440 351 292 245 228 172 136 186 205 229 219 255 224 230 230 290 301 261 346 387 361 356 386 378 366 397 426 421 359 363
44 100 255 -134 -174 -82 193 244 225 120 127 73 71 170 231 213 296 343 288 269 227 203 209 265 287 286 285 290 268 280 279 292 337 435 375 365 365 352 371 381 328 339 338 315
26 165 46 9 -101 -48 41 66 117 147 122 112 133 145 132 269 221 226 208 186 207 178 172 204 238 240 236 283 321 313 298 290 279 288 277 275 317 348 387 392 382 334 278 241
112 176 154 125 50 54 63 107 128 97 89 139 128 153 163 196 203 173 200 180 173 134 164 219 172 170 207 263 319 311 306 281 263 266 294 309 325 326 348 345 313 266 218 194
280 154 268 166 127 103 74 80 73 66 88 161 145 212 164 155 190 173 160 184 188 161 165 167 162 182 216 251 303 327 323 345 372 369 359 381 394 351 329 325 262 212 216 199
72 96 68 46 64 51 68 86 89 79 70 112 172 167 136 173 179 139 163 171 156 197 175 177 171 150 185 234 282 377 361 359 363 363 361 397 394 368 292 220 181 201 204 175
99 68 93 73 30 18 15 23 49 89 114 114 92 142 136 168 118 120 142 150 149 133 151 151 138 171 231 295 311 325 332 340 360 361 401 378 298 233 206 175 173 178 168 159
71 73 55 69 56 86 87 93 115 117 80 92 122 171 205 194 148 153 174 150 137 132 144 119 122 185 255 301 349 345 353 332 303 276 232 199 191 192 188 174 157 141 133 132
95 118 121 46 65 113 127 109 95 128 87 111 108 147 159 115 148 180 190 195 183 161 162 145 183 240 296 330 338 283 232 237 222 181 154 164 170 172 175 169 136 144 128 134

GFSNW_con_3kmhel_048.txt.gz
Helicity
152 133 90 38 123 105 167 421 336 174 326 337 288 183 276 247 102 73 124 149 170 134 110 148 115 119 90 59 75 71 48 53 11 18 50 50 38 44 104 116 63 104 106 24
185 128 128 47 153 156 320 454 408 120 285 373 202 249 199 261 169 76 75 94 136 138 139 167 115 104 60 28 65 61 79 61 21 71 113 96 70 69 126 169 170 91 99 40
211 143 117 73 132 121 296 472 527 412 300 258 209 230 192 155 168 120 121 98 77 137 150 133 90 73 35 46 19 72 148 135 116 59 68 88 91 122 123 144 113 94 102 73
221 170 122 106 171 122 265 437 512 616 511 232 227 184 238 186 130 119 95 60 62 84 142 197 94 79 91 77 63 110 137 78 131 107 76 95 75 83 156 159 116 119 52 103
251 205 126 89 141 79 211 373 514 510 336 312 310 313 162 89 110 158 133 110 32 51 117 170 158 131 97 105 120 119 174 104 143 118 139 125 90 83 79 76 102 103 106 78
265 185 112 149 107 92 232 310 405 477 321 244 279 256 260 249 119 146 114 77 129 121 40 55 84 111 116 74 75 161 178 198 153 110 182 184 101 82 119 123 158 158 160 117
233 150 128 100 94 32 378 334 402 428 346 241 178 189 344 207 165 183 123 105 78 67 12 43 15 30 78 122 134 79 245 253 204 137 213 67 118 177 151 155 156 174 181 168
213 143 154 232 126 95 272 254 364 390 283 206 129 194 142 259 159 119 129 84 94 43 202 129 104 152 189 178 237 193 162 242 210 174 169 149 142 152 171 135 89 126 146 224
163 224 180 92 49 59 202 333 226 424 273 160 134 122 141 160 174 159 79 94 62 161 73 181 134 168 213 183 255 222 216 217 200 188 170 131 68 118 186 203 147 149 180 182
177 253 217 159 132 87 147 214 210 203 303 175 147 117 166 194 161 97 121 149 104 64 144 208 124 168 193 256 236 278 352 326 247 271 198 162 107 156 224 239 117 183 205 152
156 175 102 109 138 121 196 205 155 245 128 211 159 263 208 203 76 146 95 165 138 181 179 181 217 145 204 225 232 298 328 360 313 307 263 151 194 316 305 154 98 189 220 197
149 106 118 133 114 130 94 86 -22 204 62 91 107 110 184 227 186 159 137 130 101 227 234 241 260 222 227 229 252 310 288 252 244 193 162 171 151 175 142 133 111 150 235 181
81 115 119 115 107 23 99 -189 -214 318 53 26 76 123 93 62 104 151 174 103 128 177 222 233 221 211 257 218 243 264 266 260 247 238 184 191 201 143 126 118 123 156 172 199
102 91 72 52 45 48 66 -171 -60 19 270 134 192 139 162 56 26 76 129 121 104 99 186 219 218 177 155 213 201 213 211 300 222 212 207 242 152 121 137 195 217 272 280 234
55 37 33 53 69 -27 72 -22 8 45 342 98 43 226 108 73 74 83 79 52 75 102 191 213 211 162 145 180 224 222 252 253 278 192 255 326 138 167 181 248 257 271 348 333
50 43 54 67 38 39 105 133 -26 207 64 209 81 100 140 52 47 40 91 94 162 117 164 166 167 210 208 173 181 148 193 222 224 235 239 254 243 328 292 333 319 329 344 319
54 58 59 56 46 58 94 88 20 126 90 23 152 143 103 63 87 147 139 167 174 148 174 174 173 177 192 173 199 182 203 253 214 256 428 335 254 240 330 394 405 415 432 414
47 46 54 49 39 90 197 178 74 180 78 112 193 219 146 116 96 106 176 236 241 218 165 193 211 200 221 138 166 215 222 243 310 237 243 229 364 422 452 426 432 484 479 468
17 33 39 133 153 106 121 41 11 110 25 175 134 104 183 80 75 73 170 226 240 217 213 230 194 219 140 173 137 143 226 216 268 281 282 313 422 468 448 460 464 518 470 459
-46 -36 46 77 60 50 46 159 30 -11 -67 23 119 93 26 17 16 2 113 199 226 254 246 210 230 140 218 231 201 226 274 238 320 393 340 361 379 424 447 432 397 386 392 423
69 66 74 64 -16 36 98 61 55 47 31 -17 1 4 -13 -10 -11 -3 64 261 288 224 210 214 165 261 339 274 232 211 177 165 185 183 252 289 372 422 442 424 430 460 465 460
-3 78 101 93 46 -2 110 122 95 28 4 -5 9 33 66 46 86 163 158 303 345 244 235 278 114 284 228 365 354 272 150 177 181 189 266 313 341 354 408 434 456 439 427 416
185 79 133 41 69 98 67 9 39 35 94 81 74 114 106 128 125 71 108 275 270 173 209 312 321 219 123 165 288 368 334 328 307 291 288 298 335 349 379 420 397 424 439 388
58 29 72 64 58 25 28 43 57 46 80 58 69 118 73 52 72 65 46 50 54 95 -23 91 82 80 134 181 218 266 272 261 264 263 254 281 328 357 367 374 367 364 354 359
-7 40 43 53 74 95 93 72 50 86 87 91 104 77 93 91 73 84 60 59 80 87 109 109 108 123 153 179 191 217 221 207 198 180 214 266 313 374 403 366 341 339 337 267
73 68 83 95 66 117 132 133 103 122 106 110 98 71 76 84 86 107 128 131 129 109 90 82 77 117 156 166 177 199 208 218 219 215 266 314 334 341 338 309 258 234 218 208
54 81 143 103 80 95 105 115 115 113 63 79 94 104 97 90 108 137 189 187 166 161 68 38 51 90 119 169 219 230 243 256 254 262 273 285 276 270 243 218 189 206 186 179